Погода в Шаровичах

Россия / Брянская область     53°57′47″N   33°44′41″E
темп.,
°C
ветер,
м/с
пор.,
м/с
влажн.,
%
обл.,
%
осадки,
мм/ч
давл.,
гПа
погр.,
м
19 сентября, вс
вс1900:00+5в81895100 8.3 1014805
03:00+6в71696100 18.8 1013880
06:00+6в71595100 5.1 1012897
09:00+7в71496100 11.3 1011879
12:00+7в71495100 3.4 1011848
15:00+7в61396100 9.4 1011770
18:00+7в51296100 1.3 1011728
21:00+7в51096100 1.5 1010657
20 сентября, пн
пн2000:00+7всв51097100 0.1 1010569
03:00+7всв51197100 0.2 1009561
06:00+7всв61197100 0.2 1008575
09:00+7всв61297100 0.3 1008626
12:00+7всв61396100 2.1 1008650
15:00+7всв71396100 6.9 1007610
18:00+7всв61396100 4.1 1008654
21:00+6всв51096100 4.8 1009589
21 сентября, вт
вт2100:00+6всв4997100 1.4 1009545
03:00+6св4897100 2.6 1009492
06:00+6ссв3698100 0.8 1008356
09:00+6ссв3698100 1.1 1008256
12:00+6с3897100 0.8 1008425
15:00+7с4898100 2.6 1009442
18:00+7с4798100 1.4 1009316
21:00+7с3699100 1.9 1010332
22 сентября, ср
ср2200:00+7св2698100 0.6 1011346
03:00+6ссв2497100 0.8 1011157
06:00+6ссз2399100 0.1 101197
09:00+7ссв3897100 2.7 1011557
12:00+7ссв3795100 0.8 1012566
15:00+7с3694100 0.9 1013531
18:00+7с3794100 0.0 1013498
21:00+6с2596100 0.1 1014341
23 сентября, чт
чт2300:00+6ссз2397100 0.0 1013205
03:00+6ссз1297100 0.0 1013133
06:00+6с1196100 0.0 101365
09:00+6св0095100 0.1 1013140
12:00+7ююв1194100 0.3 1013150
15:00+7ю2496100 0.8 1013264
18:00+6ююв3695100 0.1 1013396
21:00+6ю3798100 1.0 1013488